CHINASAT 12 (ZX 12)

Last updated on Jan. 26, 2020, 4:40 a.m. UTC

1 39017U 12067A   20025.58521699 -.00000215  00000-0  00000-0 0  9999
2 39017   0.0243  96.4253 0002126 214.6260 111.4576  1.00271856 26094
UTC
Height (km)
Latitude
Longitude
Inclination
Orbital Period
UTC large
Height (km)
Speed (km/s)
/
Latitude / Longitude
Inclination (degrees)
Orbital Period (minutes)
Azimuth
Elevation
Range (km)
Doppler Factor
iOS Compass Heading
iOS Angle

Next 30 passes for location: Hong Kong

Rise time Rise Azimuth (degrees) Set time Set Azimuth (degrees) Duration Max altitude (degrees)

No matching passes for this satellites